Weather History for Kaneohe MCBH, HI

Change the Weather History Date:

Sunday, February 17, 2013

  Actual Average Record
Temperature  
Mean Temperature 74 °F -  
Max Temperature 78 °F 75 °F 81 °F (2004)
Min Temperature 70 °F 67 °F 64 °F (1999)
Cooling Degree Days 9    
Growing Degree Days 24 (Base 50)    
Moisture  
Dew Point 61 °F    
Average Humidity 64    
Maximum Humidity 75    
Minimum Humidity 53    
Precipitation  
Precipitation 0.00 in - - ()
Sea Level Pressure  
Sea Level Pressure 30.14 in    
Wind  
Wind Speed 16 mph (ENE)    
Max Wind Speed 22 mph    
Max Gust Speed 33 mph    
Visibility 10 miles    
Events      
Averages and records for this station are not official NWS values.
T = Trace of Precipitation, MM = Missing Value Source: NWS Daily Summary

Daily Weather History Graph

Daily Weather History Graph

Search for Another Location

Airport:

Trip Planner

Search our weather history database for the weather conditions in past years. The results will help you decide how hot, cold, wet, or windy it might be!

Date:

Astronomy

Feb. 17, 2013 Rise Set
Actual Time 7:00 AM HST 6:30 PM HST
Civil Twilight 6:37 AM HST 6:52 PM HST
Nautical Twilight 6:11 AM HST 7:18 PM HST
Astronomical Twilight 5:45 AM HST 7:44 PM HST
Moon 11:59 AM HST (2/17) 12:39 AM HST (2/17)
Length of Visible Light 12h 15m
Length of Day
11h 30m
Waxing Crescent, 51% of the Moon is Illuminated
Feb 17
Waxing Crescent
Feb 25
Full
Mar 4
Last Quarter
Mar 11
New
Mar 19
First Quarter

Hourly Weather History & Observations

Time (HST) Temp. Dew Point Humidity Pressure Visibility Wind Dir Wind Speed Gust Speed Precip Events Conditions
12:57 AM 70.7 °F 61.0 °F 71% 30.13 in 10.0 mi East 18.4 mph 26.5 mph N/A   Partly Cloudy
1:57 AM 70.7 °F 60.1 °F 69% 30.13 in 10.0 mi ENE 13.8 mph 24.2 mph N/A   Partly Cloudy
2:57 AM 70.9 °F 62.1 °F 74% 30.11 in 10.0 mi ENE 15.0 mph 26.5 mph N/A   Scattered Clouds
3:57 AM 73.4 °F 60.1 °F 63% 30.10 in 10.0 mi ENE 13.8 mph 25.3 mph N/A   Mostly Cloudy
4:57 AM 73.4 °F 59.0 °F 61% 30.09 in 10.0 mi ENE 15.0 mph 23.0 mph N/A   Scattered Clouds
5:57 AM 71.4 °F 60.1 °F 67% 30.11 in 10.0 mi ENE 13.8 mph 24.2 mph 0.00 in   Scattered Clouds
6:57 AM 71.4 °F 63.0 °F 75% 30.14 in 10.0 mi ENE 16.1 mph 27.6 mph N/A   Mostly Cloudy
7:57 AM 71.4 °F 62.1 °F 72% 30.16 in 10.0 mi ENE 9.2 mph 18.4 mph N/A   Overcast
9:57 AM 73.4 °F 62.1 °F 68% 30.17 in 10.0 mi ENE 16.1 mph 33.4 mph 0.00 in   Clear
10:57 AM 75.2 °F 66.0 °F 73% 30.18 in 10.0 mi ENE 13.8 mph 27.6 mph N/A   Clear
11:57 AM 77.0 °F 61.0 °F 58% 30.16 in 10.0 mi ENE 18.4 mph 29.9 mph N/A   Partly Cloudy
12:57 PM 78.8 °F 60.1 °F 53% 30.13 in 10.0 mi East 17.3 mph 31.1 mph N/A   Clear
1:57 PM 77.0 °F 61.0 °F 58% 30.12 in 10.0 mi ENE 18.4 mph 26.5 mph N/A   Partly Cloudy
2:57 PM 78.8 °F 62.1 °F 56% 30.10 in 10.0 mi ENE 13.8 mph 24.2 mph N/A   Mostly Cloudy
3:57 PM 78.8 °F 62.1 °F 56% 30.10 in 10.0 mi ENE 10.4 mph 26.5 mph N/A   Scattered Clouds
4:57 PM 77.0 °F 60.1 °F 56% 30.11 in 10.0 mi ENE 13.8 mph 27.6 mph N/A   Scattered Clouds
5:57 PM 77.0 °F 59.0 °F 54% 30.12 in 10.0 mi East 13.8 mph 24.2 mph N/A   Scattered Clouds
6:57 PM 75.2 °F 60.1 °F 59% 30.13 in 10.0 mi ENE 15.0 mph 27.6 mph N/A   Mostly Cloudy
7:57 PM 73.4 °F 60.1 °F 63% 30.16 in 10.0 mi East 17.3 mph 28.8 mph N/A   Mostly Cloudy
8:57 PM 73.4 °F 59.0 °F 61% 30.18 in 10.0 mi ENE 21.9 mph 28.8 mph N/A   Mostly Cloudy
9:57 PM 73.4 °F 62.1 °F 68% 30.19 in 10.0 mi ENE 18.4 mph 25.3 mph N/A   Mostly Cloudy
10:57 PM 71.6 °F 61.0 °F 69% 30.18 in 10.0 mi East 13.8 mph 31.1 mph N/A   Mostly Cloudy
11:57 PM 71.6 °F 60.1 °F 67% 30.17 in 10.0 mi ENE 16.1 mph 25.3 mph N/A   Mostly Cloudy